[[{"header":{"parameterUnit":"m.s-1","parameterCategory":1,"la1":30.2991,"la2":30.254,"lo1":-89.0895,"lo2":-89.0444,"dy":0.0017,"dx":0.0017,"nx":28,"ny":28,"refTime":"2024-02-19T09:00:00:Z","depth":0,"parameterNumber":2,"parameterNumberName":"U-component_of_WINDS"},"data":[0,0,0,0,0,0,0,0,0,0,0,0,0,0,0,0,0,0,0,0,0,0,0,0,0,0,0,0,0,0,0,0,0,0,0,0,0,0,0,0,0,0,0,0,0,0,0,0,0,0,0,0,0,0,0,0,0,0,1.9414,1.9416,0,1.9551,1.9552,1.9554,1.9573,1.9571,1.957,1.9569,1.971,1.9715,1.972,0,0,0,0,0,0,0,0,0,0,0,0,0,1.9171,1.9175,1.9414,1.9416,1.9418,1.955,1.9552,1.9554,1.9573,1.9571,1.957,1.9568,1.9708,1.9714,1.972,0,0,0,0,0,0,0,0,0,0,0,0,0,1.9289,1.9177,1.9414,1.9443,1.9447,1.955,1.9552,1.9555,1.9573,1.9571,1.9569,1.9568,1.9706,1.9714,1.9721,1.9805,0,0,1.9744,1.9747,0,0,0,0,0,0,0,0,1.9282,1.9298,1.9437,1.9441,1.9446,1.9543,1.9518,1.9639,1.9574,1.9525,1.9569,1.9567,1.9656,1.9667,1.9697,1.9812,1.9818,1.9744,1.9749,1.9752,1.9754,0,0,0,0,0,0,0,1.9274,1.9292,1.9468,1.9439,1.9444,1.9449,1.9464,1.9541,1.96,1.9529,1.9531,1.9547,1.9658,1.969,1.9701,1.982,1.9744,1.9751,1.9755,1.9758,2.0007,2.0009,0,0,0,0,0,0,1.926,1.9285,1.9464,1.9472,1.9357,1.9455,1.9472,1.9514,1.9599,1.961,1.9548,1.9547,1.9678,1.9692,1.9706,1.9807,1.9752,1.9759,1.9763,2.0005,2.0008,2.001,0,0,0,0,0,0,1.9255,1.9276,1.9458,1.9379,1.9403,1.9461,1.9508,1.9517,1.9549,1.9613,1.9624,1.957,1.9677,1.9695,1.9779,1.9813,1.9762,1.9769,2.0002,2.0006,2.0009,2.0013,0,0,0,0,0,0,1.9248,1.9274,1.9306,1.938,1.9407,1.953,1.951,1.9521,1.9562,1.9562,1.9637,1.9647,1.9677,1.9768,1.9787,1.9822,1.9775,2.0,2.0004,2.0008,2.001,2.0016,2.0021,0,0,0,0,0,1.9239,1.9303,1.9308,1.933,1.9449,1.9532,1.9547,1.958,1.9564,1.9597,1.9638,1.9645,1.9806,1.9777,1.9798,1.9836,1.9998,2.0003,2.0007,2.0007,2.0015,2.0021,0,0,0,0,0,0,1.9233,1.9313,1.932,1.9409,1.9463,1.9535,1.9577,1.9587,1.9647,1.9644,1.9683,1.97,1.9782,1.9818,1.9783,1.992,1.9901,1.991,1.9893,1.9901,1.9906,1.9895,1.9781,0,0,0,0,0,1.9242,1.9303,1.937,1.9442,1.9469,1.9518,1.9556,1.9576,1.9634,1.9657,1.9704,1.976,1.9824,1.9865,1.9927,2.0016,2.0031,2.0052,2.0057,2.0062,2.0069,2.0116,2.0125,2.0026,2.0026,2.0026,0,0,1.9262,1.9313,1.9349,1.9442,1.9486,1.9548,1.9538,1.9603,1.9649,1.9667,1.9749,1.9785,1.9851,1.9937,1.9977,1.9969,2.01,2.0068,2.0071,2.0076,2.0122,2.0131,2.014,2.0029,2.0029,2.0028,0,0,1.9328,1.9373,1.9438,1.9482,1.9549,1.9581,1.9596,1.9666,1.969,1.9773,1.9787,1.9842,1.9951,1.9996,2.0033,2.0114,2.0122,2.0134,2.0162,2.0207,2.0215,2.0222,2.0249,2.0259,2.0141,2.0141,2.0141,0,1.9343,1.9436,1.947,1.9534,1.9574,1.9593,1.9657,1.9699,1.9783,1.981,1.98,1.9935,1.998,2.0076,2.0095,2.0126,2.0144,2.0125,2.0211,2.0219,2.0226,2.0252,2.0262,2.0142,2.0142,2.0142,2.0142,0,1.9451,1.9515,1.9559,1.9638,1.9683,1.9747,1.979,1.9832,1.9848,1.9881,1.9964,2.0019,2.0091,2.0116,2.0133,2.0214,2.0206,2.0203,2.0184,2.0236,2.026,2.0271,2.0143,2.0143,2.0142,2.0142,0,0,1.9517,1.9613,1.9628,1.9663,1.9737,1.9787,1.9852,1.9922,1.9956,2.0013,2.0068,2.0158,2.0155,2.0197,2.022,2.026,2.0318,2.0253,2.0255,2.0261,2.0408,2.0408,2.0419,2.0325,2.0327,2.0328,2.0402,0,1.959,1.9705,1.9737,1.9834,1.9893,1.9911,1.9967,2.0018,2.0051,2.0105,2.0142,2.0204,2.0197,2.0222,2.0263,2.0303,2.0348,2.0298,2.0374,2.0377,2.0355,2.0433,2.0434,2.05,2.0412,2.0414,2.0415,0,1.9691,1.9748,1.9851,1.9916,1.9941,1.9991,2.0057,2.0109,2.0167,2.0188,2.0234,2.0252,2.032,2.0298,2.0391,2.0356,2.0389,2.0413,2.0417,2.0424,2.0398,2.044,2.0523,2.0532,2.0431,2.043,2.0429,0,1.9725,1.9829,1.9903,1.9933,2.0011,2.0045,2.008,2.0136,2.0175,2.0233,2.0258,2.0323,2.0358,2.0408,2.0443,2.0424,2.0532,2.0514,2.055,2.0549,2.0571,2.0569,2.0658,2.0596,2.0595,2.0595,2.0595,0,1.9802,1.9864,1.9919,1.9965,2.0034,2.007,2.0137,2.0172,2.0222,2.0274,2.0295,2.0343,2.0388,2.0442,2.047,2.0541,2.0558,2.0576,2.0582,2.0573,2.057,2.0594,2.0589,2.0598,2.0597,2.0597,2.0596,0,1.9852,1.9892,1.9974,2.0041,2.0059,2.0107,2.0164,2.0208,2.0241,2.0307,2.0324,2.0376,2.0441,2.0481,2.0564,2.0583,2.0661,2.0667,2.064,2.0643,2.0676,2.0672,2.0782,2.0798,2.0727,2.0727,2.0728,0,1.9898,1.9945,2.0017,2.0053,2.0087,2.0145,2.0185,2.0222,2.0262,2.0331,2.0367,2.0433,2.0487,2.059,2.0635,2.0698,2.0704,2.0739,2.0714,2.0702,2.0702,2.0698,2.0702,2.0742,2.0743,2.0743,2.0744,0,1.9974,1.999,2.0047,2.0109,2.0155,2.0207,2.0258,2.0286,2.0332,2.0376,2.0442,2.0484,2.0568,2.0632,2.0699,2.0734,2.0746,2.0751,2.0763,2.0753,2.0735,2.0743,2.0649,2.0748,2.0748,2.0748,2.0747,2.0747,2.0022,2.0064,2.012,2.0181,2.0223,2.027,2.0314,2.0352,2.0408,2.0478,2.0497,2.0565,2.0621,2.0711,2.0748,2.0802,2.0797,2.0814,2.0818,2.0821,2.082,2.0727,2.0814,2.0814,2.0814,2.0814,2.0814,0,2.0096,2.0133,2.0189,2.0259,2.0307,2.0314,2.037,2.041,2.047,2.0521,2.0573,2.0648,2.0711,2.076,2.0824,2.0857,2.0864,2.0873,2.087,2.0877,2.0822,2.0805,2.0866,2.0866,2.0866,2.0866,2.0866,2.0866,2.0141,2.0212,2.0235,2.0326,2.0363,2.043,2.0461,2.0504,2.0544,2.0627,2.0678,2.071,2.076,2.0827,2.0885,2.0898,2.0919,2.0926,2.094,2.0887,2.0881,2.0876,2.086,2.0931,2.0931,2.099,2.0991,2.0991]},{"header":{"parameterUnit":"m.s-1","parameterCategory":1,"la1":30.2991,"la2":30.254,"lo1":-89.0895,"lo2":-89.0444,"dy":0.0017,"dx":0.0017,"nx":28,"ny":28,"refTime":"2024-02-19T09:00:00:Z","depth":0,"parameterNumber":3,"parameterNumberName":"V-component_of_WINDS"},"data":[0,0,0,0,0,0,0,0,0,0,0,0,0,0,0,0,0,0,0,0,0,0,0,0,0,0,0,0,0,0,0,0,0,0,0,0,0,0,0,0,0,0,0,0,0,0,0,0,0,0,0,0,0,0,0,0,0,0,2.3712,2.3712,0,2.366,2.3659,2.3659,2.3636,2.3636,2.3636,2.3636,2.3578,2.3576,2.3575,0,0,0,0,0,0,0,0,0,0,0,0,0,2.3786,2.3784,2.3712,2.3712,2.3711,2.366,2.3659,2.3659,2.3636,2.3636,2.3636,2.3636,2.3579,2.3577,2.3575,0,0,0,0,0,0,0,0,0,0,0,0,0,2.3746,2.3784,2.3712,2.3693,2.3691,2.366,2.3659,2.3658,2.3636,2.3636,2.3636,2.3636,2.3579,2.3577,2.3574,2.3557,0,0,2.3567,2.3566,0,0,0,0,0,0,0,0,2.3748,2.3743,2.3697,2.3695,2.3692,2.3655,2.3664,2.3624,2.3635,2.3656,2.3636,2.3636,2.3603,2.3599,2.3589,2.3555,2.3552,2.3567,2.3565,2.3564,2.3564,0,0,0,0,0,0,0,2.3751,2.3745,2.3691,2.3696,2.3693,2.3685,2.368,2.3656,2.363,2.3655,2.3653,2.3647,2.3602,2.3591,2.3587,2.3551,2.3567,2.3565,2.3563,2.3562,2.3497,2.3496,0,0,0,0,0,0,2.3757,2.3747,2.3693,2.369,2.3721,2.3684,2.3678,2.3666,2.363,2.3624,2.3647,2.3646,2.3595,2.359,2.3585,2.356,2.3564,2.3562,2.3561,2.3497,2.3497,2.3496,0,0,0,0,0,0,2.3759,2.3753,2.3695,2.3718,2.371,2.3683,2.367,2.3665,2.3654,2.3624,2.3619,2.3641,2.3595,2.3588,2.3564,2.3558,2.3561,2.3559,2.3497,2.3497,2.3496,2.3512,0,0,0,0,0,0,2.3761,2.3754,2.3748,2.3718,2.3709,2.3677,2.367,2.3664,2.3651,2.3649,2.3617,2.3612,2.3594,2.3568,2.3561,2.3555,2.3557,2.3498,2.3497,2.3497,2.3512,2.3512,2.3512,0,0,0,0,0,2.3764,2.3754,2.3748,2.3742,2.3702,2.3677,2.3671,2.3652,2.3651,2.3644,2.3624,2.3613,2.356,2.3565,2.3558,2.3551,2.3498,2.3497,2.3497,2.3512,2.3512,2.3512,0,0,0,0,0,0,2.3784,2.375,2.3743,2.3724,2.3703,2.3673,2.3664,2.3654,2.3632,2.3632,2.3607,2.36,2.3577,2.3561,2.3568,2.353,2.3528,2.3525,2.3542,2.3542,2.3542,2.3546,2.3555,0,0,0,0,0,2.3786,2.377,2.3741,2.3727,2.3717,2.3692,2.368,2.3667,2.3645,2.3636,2.3614,2.3591,2.3568,2.3554,2.3532,2.3509,2.35,2.35,2.3501,2.3501,2.3499,2.3483,2.3482,2.3494,2.3494,2.3494,0,0,2.379,2.377,2.3761,2.373,2.3713,2.3694,2.3685,2.3667,2.3652,2.3632,2.3608,2.3591,2.3563,2.3539,2.3527,2.3525,2.3494,2.35,2.3501,2.3499,2.3482,2.3481,2.348,2.3494,2.3494,2.3494,0,0,2.3788,2.3773,2.3758,2.374,2.3714,2.3698,2.3694,2.3665,2.3653,2.3628,2.3612,2.3593,2.3556,2.3536,2.3521,2.3509,2.3497,2.3502,2.3503,2.3488,2.3487,2.3486,2.3479,2.3477,2.3501,2.3501,2.3501,0,2.3797,2.377,2.3751,2.3733,2.3719,2.3701,2.3684,2.3667,2.3635,2.3624,2.3623,2.3574,2.3554,2.3523,2.352,2.3509,2.3502,2.3506,2.3489,2.3487,2.3486,2.3479,2.3477,2.3501,2.3501,2.3501,2.3501,0,2.378,2.3762,2.3753,2.3723,2.3707,2.369,2.3666,2.3652,2.364,2.3622,2.3595,2.3571,2.3542,2.3534,2.3522,2.3501,2.35,2.3494,2.3491,2.3486,2.3479,2.3477,2.3502,2.3502,2.3502,2.3502,0,0,2.3791,2.3749,2.3746,2.3731,2.37,2.3684,2.3664,2.3637,2.3625,2.3602,2.3583,2.3551,2.3544,2.3527,2.3512,2.3499,2.3487,2.3494,2.3493,2.3492,2.3459,2.3463,2.3461,2.348,2.3479,2.3479,2.3461,0,2.3783,2.375,2.3731,2.3704,2.3685,2.3666,2.3649,2.3626,2.3609,2.3588,2.3568,2.3545,2.3539,2.3528,2.3514,2.3492,2.348,2.3493,2.3459,2.3458,2.3466,2.3457,2.3462,2.3446,2.3458,2.3458,2.3457,0,2.3771,2.3749,2.3721,2.3689,2.3681,2.3666,2.3638,2.3619,2.3592,2.358,2.356,2.3544,2.352,2.3519,2.3483,2.3492,2.3477,2.3463,2.3462,2.3457,2.3457,2.3451,2.3441,2.3438,2.3453,2.3454,2.3454,0,2.3779,2.3743,2.372,2.3708,2.3671,2.3661,2.3644,2.3618,2.3602,2.3576,2.3565,2.3537,2.3522,2.3499,2.3475,2.3477,2.344,2.3438,2.3427,2.3428,2.342,2.3421,2.3407,2.3413,2.3413,2.3413,2.3413,0,2.3772,2.3755,2.3723,2.3709,2.3688,2.3665,2.3644,2.3626,2.3602,2.3582,2.3564,2.3545,2.3515,2.3492,2.3473,2.3445,2.3438,2.3426,2.342,2.3427,2.3428,2.3416,2.3415,2.3412,2.3412,2.3413,2.3413,0,2.3778,2.3756,2.373,2.3697,2.3688,2.3674,2.3645,2.3629,2.361,2.3585,2.3577,2.3547,2.3518,2.3492,2.3454,2.3441,2.3411,2.3406,2.3421,2.3418,2.3408,2.3408,2.3384,2.3379,2.339,2.339,2.339,0,2.3775,2.3761,2.3727,2.3713,2.3697,2.3675,2.3658,2.3634,2.3617,2.3584,2.3571,2.3541,2.3516,2.347,2.3443,2.3413,2.3405,2.3399,2.3401,2.3406,2.3403,2.3403,2.34,2.3399,2.3399,2.3399,2.3399,0,2.3771,2.376,2.3739,2.3712,2.3693,2.367,2.3647,2.3635,2.3606,2.3588,2.3559,2.3539,2.3499,2.3469,2.3435,2.3415,2.3401,2.3398,2.3394,2.3399,2.3408,2.3401,2.342,2.3399,2.3399,2.3399,2.3399,2.3399,2.3771,2.3757,2.373,2.3705,2.3685,2.3663,2.3646,2.3624,2.36,2.3567,2.3553,2.3523,2.3492,2.3446,2.3426,2.34,2.3397,2.3391,2.3389,2.3388,2.3388,2.3413,2.3394,2.3393,2.3393,2.3393,2.3393,0,2.3765,2.3746,2.3723,2.3691,2.367,2.366,2.3633,2.3616,2.359,2.3563,2.3539,2.3503,2.3473,2.3443,2.341,2.3394,2.3386,2.3386,2.3386,2.3381,2.3393,2.34,2.3393,2.3393,2.3393,2.3393,2.3393,2.3393,2.3759,2.3734,2.3719,2.3683,2.3663,2.3635,2.3619,2.3598,2.3576,2.3538,2.3513,2.3494,2.3465,2.3429,2.3399,2.3391,2.3378,2.3379,2.3369,2.3381,2.3381,2.3381,2.3387,2.3378,2.3377,2.3359,2.3359,2.3359]}]]